Flag for Uruguay Weather past 2 weeks in Canelones, Uruguay

Now
63 °F

Overcast.


Feels Like: 63 °F
Forecast: 54 / 67 °F
Wind: 12 mph from East

Location: Carrasco

Current Time: Jul 30, 2015 at 11:08:23 PM

Latest Report: Jul 30, 2015 at 10:00 PM


Visibility: N/A

Pressure: 29.95 "Hg

Humidity: 94%

Dew point: 61 °F

Location of CanelonesLocation

Historic Weather in Canelones — Graph

°F

Canelones temperature yesterday

Maximum temperature yesterday: 64 °F (at 1:00 AM)
Minimum temperature yesterday: 54 °F (at 11:00 PM)
Average temperature yesterday: 60 °F

Past Weeks' High & Low Weather Summary

 TemperatureHumidityPressure
High79 °F (Jul 28, 5:00 PM)100% (Jul 18, 6:00 AM)30.36 "Hg (Jul 18, 6:00 AM)
Low34 °F (Jul 16, 8:00 AM)29% (Jul 22, 3:00 PM)29.80 "Hg (Jul 28, 4:00 PM)
Average53 °F77%30.14 "Hg
* Reported Jul 15 10:00 PM — Jul 30 10:00 PM, Canelones, Weather by CustomWeather, © 2015

Note: Actual official high and low records may vary slightly from our data, if they occured in-between our weather recording intervals... More about our weather records

Advertising

Canelones weather history for previous 24 hours

 ConditionsComfort  
Time TempWeatherWind HumidityBarometerVisibility
10:00 PM
Thu, Jul 30
63 °FOvercast.12 mph94%29.95 "HgN/A
9:00 PM61 °FDrizzle. Overcast.7 mph100%30.01 "HgN/A
8:00 PM63 °FDrizzle. Overcast.9 mph94%30.01 "HgN/A
7:00 PM63 °FLight rain. Low clouds.14 mph94%30.01 "HgN/A
6:00 PM63 °FLight rain. Low clouds.14 mph94%30.01 "HgN/A
5:25 PM63 °FLow clouds.9 mph88%30.01 "HgN/A
5:00 PM63 °FRain. Low clouds.9 mph88%30.01 "HgN/A
4:00 PM61 °FLight rain. Low clouds.10 mph100%30.04 "HgN/A
3:00 PM63 °FThunderstorms. More clouds than sun.15 mph83%30.04 "Hg2 mi
2:00 PM64 °FThunderstorms. Partly sunny.14 mph78%30.07 "HgN/A
1:00 PM64 °FBroken clouds.14 mph78%30.07 "HgN/A
12:00 PM63 °FPartly sunny.13 mph83%30.12 "HgN/A
11:00 AM61 °FPartly sunny.15 mph88%30.12 "HgN/A
10:00 AM57 °FBroken clouds.15 mph100%30.12 "Hg5 mi
9:00 AM55 °FFog.16 mph100%30.12 "Hg2 mi
8:00 AM55 °FPartly sunny.13 mph94%30.12 "HgN/A
7:00 AM55 °FPartly sunny.10 mph88%30.12 "HgN/A
6:00 AM55 °FPassing clouds.10 mph88%30.12 "HgN/A
5:00 AM55 °FClear.8 mph88%30.12 "Hg10 mi
4:00 AM54 °FPassing clouds.9 mph94%30.12 "HgN/A
3:00 AM54 °FPassing clouds.9 mph94%30.15 "HgN/A
2:00 AM55 °FPassing clouds.8 mph94%30.15 "Hg4 mi
1:00 AM55 °FPassing clouds.9 mph94%30.15 "Hg4 mi
12:00 AM54 °FFog.9 mph100%30.15 "Hg3 mi
11:00 PM
Wed, Jul 29
54 °FFog.8 mph100%30.15 "Hg1 mi
Weather by CustomWeather, © 2015

See weather overviewHow to use our weather pages